H1 CPF 2 NER 2021 7 30 9 211 01 glonass106 H2 0705201 9106 32275 2021 7 30 0 0 0 2021 8 2 23 45 0 900 1 1 0 0 0 1 H9 10 0 59425 0.00000 0 -4776357.128 -23019375.953 -9892940.095 10 0 59425 900.00000 0 -4380528.134 -21664068.595 -12732205.439 10 0 59425 1800.00000 0 -3723164.610 -20049781.560 -15324130.201 10 0 59425 2700.00000 0 -2784154.331 -18236740.919 -17618416.335 10 0 59425 3600.00000 0 -1555878.771 -16289993.838 -19570564.343 10 0 59425 4500.00000 0 -43783.402 -14276739.882 -21142731.798 10 0 59425 5400.00000 0 1733604.305 -12263593.047 -22304461.300 10 0 59425 6300.00000 0 3745210.772 -10313888.711 -23033264.533 10 0 59425 7200.00000 0 5948484.262 -8485147.469 -23315051.874 10 0 59425 8100.00000 0 8290951.157 -6826800.816 -23144400.048 10 0 59425 9000.00000 0 10712196.583 -5378272.470 -22524653.232 10 0 59425 9900.00000 0 13146187.807 -4167494.219 -21467856.059 10 0 59425 10800.00000 0 15523844.768 -3209916.940 -19994519.921 10 0 59425 11700.00000 0 17775751.762 -2508056.861 -18133226.939 10 0 59425 12600.00000 0 19834898.261 -2051595.003 -15920078.909 10 0 59425 13500.00000 0 21639335.550 -1818024.637 -13398001.336 10 0 59425 14400.00000 0 23134639.036 -1773818.851 -10615915.388 10 0 59425 15300.00000 0 24276073.848 -1876068.608 -7627793.263 10 0 59425 16200.00000 0 25030373.506 -2074521.885 -4491614.736 10 0 59425 17100.00000 0 25377057.289 -2313937.559 -1268244.730 10 0 59425 18000.00000 0 25309231.034 -2536654.411 1979746.392 10 0 59425 18900.00000 0 24833837.648 -2685266.305 5189296.952 10 0 59425 19800.00000 0 23971346.593 -2705290.036 8298078.798 10 0 59425 20700.00000 0 22754895.160 -2547712.494 11245708.671 10 0 59425 21600.00000 0 21228917.396 -2171308.751 13974922.381 10 0 59425 22500.00000 0 19447317.991 -1544632.303 16432688.665 10 0 59425 23400.00000 0 17471267.643 -647592.438 18571240.864 10 0 59425 24300.00000 0 15366712.111 527448.871 20349006.300 10 0 59425 25200.00000 0 13201699.110 1975108.054 21731415.367 10 0 59425 26100.00000 0 11043634.749 3676964.213 22691574.634 10 0 59425 27000.00000 0 8956583.931 5602098.685 23210791.098 10 0 59425 27900.00000 0 6998727.151 7708168.718 23278937.480 10 0 59425 28800.00000 0 5220079.564 9942971.646 22894651.523 10 0 59425 29700.00000 0 3660567.052 12246435.434 22065365.346 10 0 59425 30600.00000 0 2348539.053 14552953.563 20807164.067 10 0 59425 31500.00000 0 1299779.738 16793967.495 19144476.135 10 0 59425 32400.00000 0 517058.115 18900689.551 17109600.975 10 0 59425 33300.00000 0 -9764.900 20806852.768 14742082.685 10 0 59425 34200.00000 0 -303077.777 22451372.875 12087941.635 10 0 59425 35100.00000 0 -396336.746 23780810.947 9198778.673 10 0 59425 36000.00000 0 -332412.006 24751533.419 6130769.255 10 0 59425 36900.00000 0 -161532.590 25331478.666 2943567.347 10 0 59425 37800.00000 0 61082.197 25501455.861 -300859.231 10 0 59425 38700.00000 0 277803.529 25255921.517 -3539438.828 10 0 59425 39600.00000 0 431275.736 24603201.187 -6709227.026 10 0 59425 40500.00000 0 467086.416 23565147.312 -9748634.146 10 0 59425 41400.00000 0 336310.067 22176248.005 -12598624.767 10 0 59425 42300.00000 0 -2183.032 20482224.750 -15203865.377 10 0 59425 43200.00000 0 -579750.916 18538178.411 -17513797.737 10 0 59425 44100.00000 0 -1416420.882 16406361.725 -19483617.213 10 0 59425 45000.00000 0 -2519813.410 14153671.898 -21075137.371 10 0 59425 45900.00000 0 -3884594.758 11848968.212 -22257524.711 10 0 59425 46800.00000 0 -5492481.696 9560326.458 -23007890.047 10 0 59425 47700.00000 0 -7312798.671 7352344.248 -23311725.872 10 0 59425 48600.00000 0 -9303564.787 5283608.704 -23163182.014 10 0 59425 49500.00000 0 -11413065.974 3404430.930 -22565174.883 10 0 59425 50400.00000 0 -13581847.569 1754940.452 -21529328.601 10 0 59425 51300.00000 0 -15745045.176 363617.646 -20075749.291 10 0 59425 52200.00000 0 -17834957.635 -753676.046 -18232636.767 10 0 59425 53100.00000 0 -19783755.620 -1594130.835 -16035740.785 10 0 59425 54000.00000 0 -21526213.745 -2167867.399 -13527671.864 10 0 59425 54900.00000 0 -23002352.707 -2497267.854 -10757079.338 10 0 59425 55800.00000 0 -24159881.451 -2615787.757 -7777712.043 10 0 59425 56700.00000 0 -24956337.385 -2566299.776 -4647379.260 10 0 59425 57600.00000 0 -25360835.008 -2399039.320 -1426831.693 10 0 59425 58500.00000 0 -25355349.415 -2169239.171 1821415.947 10 0 59425 59400.00000 0 -24935480.522 -1934553.469 5034297.893 10 0 59425 60300.00000 0 -24110665.477 -1752380.320 8149422.168 10 0 59425 61200.00000 0 -22903829.883 -1677196.707 11106283.158 10 0 59425 62100.00000 0 -21350492.024 -1758018.982 13847438.100 10 0 59425 63000.00000 0 -19497357.187 -2036096.949 16319624.399 10 0 59425 63900.00000 0 -17400460.667 -2542939.722 18474795.770 10 0 59425 64800.00000 0 -15122936.852 -3298757.599 20271057.043 10 0 59425 65700.00000 0 -12732507.343 -4311386.642 21673479.503 10 0 59425 66600.00000 0 -10298792.829 -5575742.379 22654780.967 10 0 59425 67500.00000 0 -7890560.555 -7073826.808 23195857.573 10 0 59425 68400.00000 0 -5573021.793 -8775289.711 23286157.060 10 0 59425 69300.00000 0 -3405291.617 -10638521.967 22923886.317 10 0 59425 70200.00000 0 -1438116.344 -12612236.327 22116049.117 10 0 59425 71100.00000 0 288037.236 -14637470.557 20878313.094 10 0 59425 72000.00000 0 1744451.707 -16649930.026 19234708.208 10 0 59425 72900.00000 0 2915127.348 -18582572.375 17217162.205 10 0 59425 73800.00000 0 3797209.323 -20368326.556 14864881.593 10 0 59425 74700.00000 0 4400856.697 -21942832.469 12223589.897 10 0 59425 75600.00000 0 4748559.891 -23247086.337 9344637.722 10 0 59425 76500.00000 0 4873936.350 -24229880.651 6284001.840 10 0 59425 77400.00000 0 4820056.333 -24849935.850 3101193.031 10 0 59425 78300.00000 0 4637370.668 -25077633.863 -141905.760 10 0 59425 79200.00000 0 4381329.248 -24896280.315 -3382247.786 10 0 59425 80100.00000 0 4109792.084 -24302842.115 -6556853.147 10 0 59425 81000.00000 0 3880343.565 -23308129.386 -9604037.094 10 0 59425 81900.00000 0 3747624.495 -21936414.164 -12464611.530 10 0 59425 82800.00000 0 3760795.541 -20224502.165 -15083035.798 10 0 59425 83700.00000 0 3961239.924 -18220296.845 -17408494.230 10 0 59425 84600.00000 0 4380602.830 -15980916.223 -19395879.616 10 0 59425 85500.00000 0 5039250.535 -13570441.533 -21006663.781 10 0 59426 0.00000 0 5945214.310 -11057391.824 -22209638.997 10 0 59426 900.00000 0 7093664.221 -8512029.574 -22981516.708 10 0 59426 1800.00000 0 8466933.958 -6003609.249 -23307372.514 10 0 59426 2700.00000 0 10035098.045 -3597682.868 -23180929.879 10 0 59426 3600.00000 0 11757075.893 -1353572.952 -22604677.552 10 0 59426 4500.00000 0 13582218.405 677882.432 -21589818.835 10 0 59426 5400.00000 0 15452311.146 2456220.511 -20156053.895 10 0 59426 6300.00000 0 17303911.404 3952803.103 -18331199.171 10 0 59426 7200.00000 0 19070922.276 5151765.287 -16150650.947 10 0 59426 8100.00000 0 20687297.005 6050425.185 -13656702.922 10 0 59426 9000.00000 0 22089761.092 6659138.904 -10897730.371 10 0 59426 9900.00000 0 23220438.654 7000607.649 -7927256.146 10 0 59426 10800.00000 0 24029273.219 7108666.989 -4802916.070 10 0 59426 11700.00000 0 24476141.409 7026609.856 -1585343.372 10 0 59426 12600.00000 0 24532570.545 6805114.501 1663006.309 10 0 59426 13500.00000 0 24182987.601 6499865.286 4879066.603 10 0 59426 14400.00000 0 23425446.477 6168967.275 8000385.137 10 0 59426 15300.00000 0 22271802.327 5870264.294 10966337.178 10 0 59426 16200.00000 0 20747324.943 5658674.312 13719304.376 10 0 59426 17100.00000 0 18889766.666 5583655.323 16205795.462 10 0 59426 18000.00000 0 16747923.249 5686909.360 18377486.836 10 0 59426 18900.00000 0 14379747.289 6000422.264 20192162.776 10 0 59426 19800.00000 0 11850092.528 6544922.689 21614537.029 10 0 59426 20700.00000 0 9228182.754 7328826.067 22616939.845 10 0 59426 21600.00000 0 6584910.348 8347708.995 23179857.302 10 0 59426 22500.00000 0 3990076.551 9584337.105 23292312.541 10 0 59426 23400.00000 0 1509687.941 11009246.333 22952081.553 10 0 59426 24300.00000 0 -796578.904 12581854.225 22165739.269 10 0 59426 25200.00000 0 -2877639.582 14252055.685 20948534.876 10 0 59426 26100.00000 0 -4692897.222 15962237.112 19324098.459 10 0 59426 27000.00000 0 -6213692.735 17649625.152 17323984.277 10 0 59426 27900.00000 0 -7424250.229 19248872.069 14987059.112 10 0 59426 28800.00000 0 -8322078.884 20694769.426 12358747.228 10 0 59426 29700.00000 0 -8917815.490 21924976.117 9490146.365 10 0 59426 30600.00000 0 -9234515.382 22882645.917 6437031.847 10 0 59426 31500.00000 0 -9306422.724 23518843.603 3258768.409 10 0 59426 32400.00000 0 -9177273.268 23794647.558 17151.221 10 0 59426 33300.00000 0 -8898202.442 23682849.826 -3224800.786 10 0 59426 34200.00000 0 -8525348.400 23169181.629 -6404075.080 10 0 59426 35100.00000 0 -8117252.524 22253012.424 -9458894.581 10 0 59426 36000.00000 0 -7732168.352 20947492.916 -12329921.083 10 0 59426 36900.00000 0 -7425393.551 19279135.949 -14961409.116 10 0 59426 37800.00000 0 -7246738.353 17286852.924 -17302287.647 10 0 59426 38700.00000 0 -7238237.780 15020486.144 -19307148.673 10 0 59426 39600.00000 0 -7432204.405 12538898.633 -20937123.773 10 0 59426 40500.00000 0 -7849703.792 9907701.110 -22160632.242 10 0 59426 41400.00000 0 -8499516.781 7196710.665 -22953987.036 10 0 59426 42300.00000 0 -9377632.238 4477246.617 -23301847.543 10 0 59426 43200.00000 0 -10467291.673 1819375.284 -23197511.248 10 0 59426 44100.00000 0 -11739584.074 -710782.730 -22643039.263 10 0 59426 45000.00000 0 -13154566.404 -3053571.937 -21649213.737 10 0 59426 45900.00000 0 -14662863.394 -5158044.648 -20235328.156 10 0 59426 46800.00000 0 -16207680.341 -6983835.104 -18428814.477 10 0 59426 47700.00000 0 -17727145.330 -8502588.344 -16264714.039 10 0 59426 48600.00000 0 -19156883.532 -9698885.600 -13785001.932 10 0 59426 49500.00000 0 -20432716.343 -10570628.853 -11037777.320 10 0 59426 50400.00000 0 -21493372.606 -11128869.439 -8076334.816 10 0 59426 51300.00000 0 -22283098.405 -11397088.883 -4958134.362 10 0 59426 52200.00000 0 -22754055.842 -11409962.926 -1743689.167 10 0 59426 53100.00000 0 -22868409.705 -11211661.360 1504606.863 10 0 59426 54000.00000 0 -22600013.840 -10853755.879 4723689.507 10 0 59426 54900.00000 0 -21935625.641 -10392824.672 7851048.818 10 0 59426 55800.00000 0 -20875596.759 -9887855.329 10825943.798 10 0 59426 56700.00000 0 -19434010.141 -9397556.184 13590583.347 10 0 59426 57600.00000 0 -17638256.636 -8977690.100 16091250.253 10 0 59426 58500.00000 0 -15528068.047 -8678543.750 18279346.135 10 0 59426 59400.00000 0 -13154046.210 -8542639.690 20112336.976 10 0 59426 60300.00000 0 -10575748.716 -8602788.251 21554580.884 10 0 59426 61200.00000 0 -7859410.537 -8880561.938 22578022.048 10 0 59426 62100.00000 0 -5075395.791 -9385257.192 23162737.561 10 0 59426 63000.00000 0 -2295485.128 -10113387.911 23297326.622 10 0 59426 63900.00000 0 409888.912 -11048732.752 22979134.573 10 0 59426 64800.00000 0 2974344.219 -12162935.029 22214307.395 10 0 59426 65700.00000 0 5338077.273 -13416630.759 21017675.388 10 0 59426 66600.00000 0 7450112.477 -14761058.209 19412467.994 10 0 59426 67500.00000 0 9270179.659 -16140081.923 17429864.928 10 0 59426 68400.00000 0 10770142.145 -17492546.622 15108391.853 10 0 59426 69300.00000 0 11934916.482 -18754862.248 12493172.049 10 0 59426 70200.00000 0 12762846.244 -19863711.395 9635048.334 10 0 59426 71100.00000 0 13265515.266 -20758764.962 6589592.202 10 0 59426 72000.00000 0 13467009.207 -21385291.219 3416019.665 10 0 59426 72900.00000 0 13402657.763 -21696547.812 176035.225 10 0 59426 73800.00000 0 13117311.796 -21655855.265 -3067373.046 10 0 59426 74700.00000 0 12663229.310 -21238263.969 -6251163.096 10 0 59426 75600.00000 0 12097660.826 -20431743.875 -9313468.614 10 0 59426 76500.00000 0 11480237.231 -19237846.334 -12194804.314 10 0 59426 77400.00000 0 10870271.415 -17671809.901 -14839222.823 10 0 59426 78300.00000 0 10324088.380 -15762105.472 -17195400.473 10 0 59426 79200.00000 0 9892496.948 -13549439.586 -19217630.946 10 0 59426 80100.00000 0 9618509.921 -11085257.545 -20866707.754 10 0 59426 81000.00000 0 9535408.692 -8429808.647 -22110679.007 10 0 59426 81900.00000 0 9665233.635 -5649853.904 -22925460.583 10 0 59426 82800.00000 0 10017763.412 -2816111.261 -23295296.585 10 0 59426 83700.00000 0 10590025.886 -543.861 -23213058.989 10 0 59426 84600.00000 0 11366360.965 2726396.896 -22680381.316 10 0 59426 85500.00000 0 12319032.743 5298459.993 -21707624.188 10 0 59427 0.00000 0 13409365.422 7656104.746 -20313673.702 10 0 59427 900.00000 0 14589355.894 9748729.018 -18525576.151 10 0 59427 1800.00000 0 15803695.427 11536524.703 -16378016.512 10 0 59427 2700.00000 0 16992116.737 12991883.504 -13912649.453 10 0 59427 3600.00000 0 18091968.058 14100297.023 -11177295.870 10 0 59427 4500.00000 0 19040906.684 14860713.351 -8225019.636 10 0 59427 5400.00000 0 19779599.020 15285336.824 -5113102.006 10 0 59427 6300.00000 0 20254313.628 15398879.940 -1901933.101 10 0 59427 7200.00000 0 20419297.923 15237299.535 1346158.136 10 0 59427 8100.00000 0 20238838.068 14846070.985 4568112.935 10 0 59427 9000.00000 0 19688914.602 14278073.604 7701367.033 10 0 59427 9900.00000 0 18758383.299 13591176.842 10685066.298 10 0 59427 10800.00000 0 17449630.538 12845629.487 13461249.778 10 0 59427 11700.00000 0 15778674.511 12101362.431 15975976.948 10 0 59427 12600.00000 0 13774706.906 11415319.133 18180376.981 10 0 59427 13500.00000 0 11479093.100 10838926.721 20031599.568 10 0 59427 14400.00000 0 8943871.573 10415814.645 21493648.854 10 0 59427 15300.00000 0 6229814.250 10179877.350 22538084.277 10 0 59427 16200.00000 0 3404127.717 10153762.843 23144574.883 10 0 59427 17100.00000 0 537890.145 10347851.143 23301296.466 10 0 59427 18000.00000 0 -2296670.058 10759765.941 23005163.821 10 0 59427 18900.00000 0 -5028941.455 11374440.478 22261893.611 10 0 59427 19800.00000 0 -7592628.242 12164735.283 21085896.401 10 0 59427 20700.00000 0 -9928268.578 13092582.276 19499999.673 10 0 59427 21600.00000 0 -11985468.445 14110607.486 17535006.825 10 0 59427 22500.00000 0 -13724758.496 15164164.433 15229100.263 10 0 59427 23400.00000 0 -15118996.992 16193692.686 12627099.847 10 0 59427 24300.00000 0 -16154260.928 17137302.213 9779590.821 10 0 59427 25200.00000 0 -16830188.843 17933474.355 6741938.076 10 0 59427 26100.00000 0 -17159761.829 18523765.037 3573206.081 10 0 59427 27000.00000 0 -17168533.025 18855395.605 335005.834 10 0 59427 27900.00000 0 -16893339.176 18883621.208 -2909708.255 10 0 59427 28800.00000 0 -16380549.765 18573776.073 -6097867.372 10 0 59427 29700.00000 0 -15683928.790 17902908.663 -9167518.640 10 0 59427 30600.00000 0 -14862200.568 16860937.135 -12059032.240 10 0 59427 31500.00000 0 -13976423.310 15451275.927 -14716261.251 10 0 59427 32400.00000 0 -13087282.065 13690906.658 -17087631.491 10 0 59427 33300.00000 0 -12252415.708 11609889.955 -19127140.182 10 0 59427 34200.00000 0 -11523890.855 9250338.371 -20795244.317 10 0 59427 35100.00000 0 -10945928.974 6664892.932 -22059622.059 10 0 59427 36000.00000 0 -10552982.018 3914766.436 -22895793.138 10 0 59427 36900.00000 0 -10368236.972 1067434.510 -23287586.987 10 0 59427 37800.00000 0 -10402611.568 -1805930.236 -23227450.366 10 0 59427 38700.00000 0 -10654282.803 -4633175.285 -22716589.168 10 0 59427 39600.00000 0 -11108767.578 -7343924.573 -21764942.118 10 0 59427 40500.00000 0 -11739551.844 -9872260.926 -20390987.121 10 0 59427 41400.00000 0 -12509241.770 -12159224.390 -18621383.903 10 0 59427 42300.00000 0 -13371188.745 -14155023.753 -16490459.615 10 0 59427 43200.00000 0 -14271520.211 -15820870.520 -14039546.874 10 0 59427 44100.00000 0 -15151491.354 -17130359.998 -11316186.434 10 0 59427 45000.00000 0 -15950059.054 -18070342.785 -8373209.383 10 0 59427 45900.00000 0 -16606570.011 -18641251.136 -5267716.097 10 0 59427 46800.00000 0 -17063449.903 -18856867.228 -2059971.324 10 0 59427 47700.00000 0 -17268780.130 -18743543.637 1187763.366 10 0 59427 48600.00000 0 -17178653.128 -18338909.318 4412437.148 10 0 59427 49500.00000 0 -16759206.354 -17690115.951 7551434.044 10 0 59427 50400.00000 0 -15988248.376 -16851698.880 10543789.458 10 0 59427 51300.00000 0 -14856407.556 -15883143.109 13331375.291 10 0 59427 52200.00000 0 -13367753.769 -14846257.252 15860030.379 10 0 59427 53100.00000 0 -11539865.830 -13802466.353 18080613.992 10 0 59427 54000.00000 0 -9403340.425 -12810137.858 19949961.874 10 0 59427 54900.00000 0 -7000761.794 -11922053.528 21431726.267 10 0 59427 55800.00000 0 -4385174.032 -11183133.824 22497083.581 10 0 59427 56700.00000 0 -1618118.551 -10628510.604 23125296.170 10 0 59427 57600.00000 0 1232682.590 -10282029.246 23304117.384 10 0 59427 58500.00000 0 4095901.940 -10155243.235 23030032.064 10 0 59427 59400.00000 0 6899334.219 -10246943.575 22308327.786 10 0 59427 60300.00000 0 9572663.527 -10543242.897 21152995.275 10 0 59427 61200.00000 0 12050155.601 -11018210.838 19586459.628 10 0 59427 62100.00000 0 14273163.671 -11635034.078 17639147.174 10 0 59427 63000.00000 0 16192344.021 -12347652.214 15348895.962 10 0 59427 63900.00000 0 17769489.223 -13102800.556 12760220.955 10 0 59427 64800.00000 0 18978903.011 -13842373.496 9923447.959 10 0 59427 65700.00000 0 19808259.859 -14506008.456 6893732.988 10 0 59427 66600.00000 0 20258913.857 -15033780.786 3729986.309 10 0 59427 67500.00000 0 20345644.819 -15368895.179 493722.438 10 0 59427 68400.00000 0 20095853.211 -15460259.109 -2752141.091 10 0 59427 69300.00000 0 19548238.886 -15264828.798 -5944512.036 10 0 59427 70200.00000 0 18751020.406 -14749627.785 -9021354.307 10 0 59427 71100.00000 0 17759771.115 -13893352.144 -11922896.808 10 0 59427 72000.00000 0 16634964.205 -12687493.996 -14592796.176 10 0 59427 72900.00000 0 15439331.074 -11136935.375 -16979230.588 10 0 59427 73800.00000 0 14235144.820 -9259986.930 -19035903.416 10 0 59427 74700.00000 0 13081543.534 -7087869.364 -20722937.424 10 0 59427 75600.00000 0 12032005.902 -4663658.796 -22007642.756 10 0 59427 76500.00000 0 11132084.883 -2040739.513 -22865144.527 10 0 59427 77400.00000 0 10417494.010 719171.930 -23278858.597 10 0 59427 78300.00000 0 9912625.880 3548349.798 -23240807.165 10 0 59427 79200.00000 0 9629564.102 6375633.761 -22751768.705 10 0 59427 80100.00000 0 9567629.363 9129148.939 -21821259.820 10 0 59427 81000.00000 0 9713477.936 11739059.565 -20467349.624 10 0 59427 81900.00000 0 10041747.985 14140243.070 -18716310.160 10 0 59427 82800.00000 0 10516226.232 16274774.503 -16602109.391 10 0 59427 83700.00000 0 11091485.850 18094119.076 -14165756.084 10 0 59427 84600.00000 0 11714926.771 19560942.519 -11454508.695 10 0 59427 85500.00000 0 12329132.635 20650464.505 -8520963.017 10 0 59428 0.00000 0 12874445.280 21351299.443 -5422035.798 10 0 59428 900.00000 0 13291648.020 21665749.815 -2217863.171 10 0 59428 1800.00000 0 13524645.194 21609540.842 1029363.877 10 0 59428 2700.00000 0 13523023.225 21211006.941 4256605.845 10 0 59428 3600.00000 0 13244386.123 20509765.705 7401198.387 10 0 59428 4500.00000 0 12656365.022 19554934.556 10402069.680 10 0 59428 5400.00000 0 11738216.555 18402965.769 13200927.510 10 0 59428 6300.00000 0 10481941.396 17115191.070 15743392.836 10 0 59428 7200.00000 0 8892874.670 15755179.346 17980057.494 10 0 59428 8100.00000 0 6989721.996 14386018.757 19867445.419 10 0 59428 9000.00000 0 4804038.204 13067637.611 21368858.733 10 0 59428 9900.00000 0 2379169.160 11854276.630 22455092.236 10 0 59428 10800.00000 0 -231300.490 10792218.736 23105002.604 10 0 59428 11700.00000 0 -2965530.187 9917871.550 23305921.333 10 0 59428 12600.00000 0 -5755755.380 9256282.984 23053903.441 10 0 59428 13500.00000 0 -8530872.464 8820152.002 22353807.061 10 0 59428 14400.00000 0 -11219170.006 8609375.916 21219202.218 10 0 59428 15300.00000 0 -13751093.223 8611153.005 19672110.251 10 0 59428 16200.00000 0 -16061927.177 8800635.913 17742578.585 10 0 59428 17100.00000 0 -18094287.355 9142108.086 15468098.645 10 0 59428 18000.00000 0 -19800313.996 9590633.403 12892877.905 10 0 59428 18900.00000 0 -21143478.857 10094109.063 10066979.898 10 0 59428 19800.00000 0 -22099929.224 10595634.607 7045348.789 10 0 59428 20700.00000 0 -22659313.171 11036096.421 3886737.640 10 0 59428 21600.00000 0 -22825052.079 11356857.760 652561.494 10 0 59428 22500.00000 0 -22614049.596 11502439.732 -2594301.904 10 0 59428 23400.00000 0 -22055850.120 11423079.028 -5790739.706 10 0 59428 24300.00000 0 -21191283.177 11077053.348 -8874635.315 10 0 59428 25200.00000 0 -20070651.729 10432675.459 -11786078.926 10 0 59428 26100.00000 0 -18751541.701 9469870.909 -14468533.113 10 0 59428 27000.00000 0 -17296345.751 8181272.201 -16869930.562 10 0 59428 27900.00000 0 -15769606.109 6572782.705 -18943682.635 10 0 59428 28800.00000 0 -14235288.542 4663586.069 -20649579.368 10 0 59428 29700.00000 0 -12754101.989 2485600.121 -21954564.004 10 0 59428 30600.00000 0 -11380975.996 82397.456 -22833367.758 10 0 59428 31500.00000 0 -10162801.168 -2492362.854 -23268993.242 10 0 59428 32400.00000 0 -9136526.417 -5176927.867 -23253038.036 10 0 59428 33300.00000 0 -8327691.678 -7903785.679 -22785852.769 10 0 59428 34200.00000 0 -7749456.503 -10602246.426 -21876531.165 10 0 59428 35100.00000 0 -7402164.137 -13201163.225 -20542732.483 10 0 59428 36000.00000 0 -7273458.458 -15631681.032 -18810339.744 10 0 59428 36900.00000 0 -7338948.115 -17829900.171 -16712960.143 10 0 59428 37800.00000 0 -7563389.474 -19739344.695 -14291276.845 10 0 59428 38700.00000 0 -7902338.295 -21313133.694 -11592264.124 10 0 59428 39600.00000 0 -8304200.480 -22515765.647 -8668280.511 10 0 59428 40500.00000 0 -8712595.394 -23324441.923 -5576056.966 10 0 59428 41400.00000 0 -9068932.025 -23729874.517 -2375599.234 10 0 59428 42300.00000 0 -9315089.118 -23736544.456 870974.485 10 0 59428 43200.00000 0 -9396085.822 -23362400.288 4100638.133 10 0 59428 44100.00000 0 -9262629.616 -22638009.466 7250681.187 10 0 59428 45000.00000 0 -8873433.254 -21605198.367 10259926.842 10 0 59428 45900.00000 0 -8197202.058 -20315238.239 13069921.075 10 0 59428 46800.00000 0 -7214206.688 -18826653.380 15626069.285 10 0 59428 47700.00000 0 -5917373.913 -17202743.728 17878698.130 10 0 59428 48600.00000 0 -4312848.135 -15508926.002 19784021.876 10 0 59428 49500.00000 0 -2419998.592 -13810004.956 21304994.464 10 0 59428 50400.00000 0 -270870.501 -12167489.226 22412030.776 10 0 59428 51300.00000 0 2090898.405 -10637064.156 23083583.204 10 0 59428 52200.00000 0 4611652.121 -9266327.268 23306562.480 10 0 59428 53100.00000 0 7229716.935 -8092881.035 23076594.550 10 0 59428 54000.00000 0 9877746.117 -7142862.448 22398108.555 10 0 59428 54900.00000 0 12485312.033 -6429970.609 21284253.961 10 0 59428 55800.00000 0 14981638.428 -5955032.672 19756648.200 10 0 59428 56700.00000 0 17298359.638 -5706125.856 17844959.326 10 0 59428 57600.00000 0 19372192.105 -5659249.862 15586331.366 10 0 59428 58500.00000 0 21147406.922 -5779520.848 13024663.165 10 0 59428 59400.00000 0 22578000.245 -6022836.021 10209754.463 10 0 59428 60300.00000 0 23629470.950 -6337937.969 7196335.649 10 0 59428 61200.00000 0 24280131.122 -6668790.757 4043000.232 10 0 59428 62100.00000 0 24521894.712 -6957166.555 811061.069 10 0 59428 63000.00000 0 24360511.606 -7145332.450 -2436646.917 10 0 59428 63900.00000 0 23815237.769 -7178722.888 -5636993.499 10 0 59428 64800.00000 0 22917956.076 -7008483.717 -8727784.887 10 0 59428 65700.00000 0 21711785.536 -6593779.363 -11648975.850 10 0 59428 66600.00000 0 20249238.275 -5903764.860 -14343838.050 10 0 59428 67500.00000 0 18590002.531 -4919138.729 -16760061.639 10 0 59428 68400.00000 0 16798445.420 -3633210.610 -18850768.681 10 0 59428 69300.00000 0 14940940.749 -2052438.128 -20575418.912 10 0 59428 70200.00000 0 13083134.049 -196409.847 -21900590.808 10 0 59428 71100.00000 0 11287259.155 1902725.632 -22800623.483 10 0 59428 72000.00000 0 9609618.185 4201361.176 -23258107.744 10 0 59428 72900.00000 0 8098329.430 6646018.039 -23264217.598 10 0 59428 73800.00000 0 6791436.238 9175352.923 -22818876.469 10 0 59428 74700.00000 0 5715454.771 11722502.500 -21930755.399 10 0 59428 75600.00000 0 4884420.055 14217668.850 -20617103.543 10 0 59428 76500.00000 0 4299469.026 16590839.345 -18903414.210 10 0 59428 77400.00000 0 3948976.949 18774528.662 -16822932.701 10 0 59428 78300.00000 0 3809240.583 20706429.794 -14416015.005 10 0 59428 79200.00000 0 3845678.678 22331864.297 -11729349.225 10 0 59428 80100.00000 0 4014498.857 23605930.188 -8815054.231 10 0 59428 81000.00000 0 4264760.306 24495258.209 -5729672.499 10 0 59428 81900.00000 0 4540745.049 24979303.319 -2533076.175 10 0 59428 82800.00000 0 4784537.519 25051117.412 712692.590 10 0 59428 83700.00000 0 4938703.144 24717570.939 3944624.640 10 0 59428 84600.00000 0 4948952.397 23999014.062 7099966.782 10 0 59428 85500.00000 0 4766677.184 22928391.472 10117440.663 99